User: anonymous   Login
Location: Unspecified
(0.0000°N, 0.0000°E)
Time: 03:49:46
(UTC+00:00)
Language:

YAOGAN 3 - Orbit

View from above orbital plane
View from above orbital plane
View from above satellite
View from above satellite

Ground track
Ground track

The orbit data is extracted from the following two-line orbital elements,

1 32289U 07055A   18292.91192350 -.00000052  00000-0  18748-6 0  9995
2 32289  98.0085 298.9859 0001543 102.6633 257.4774 14.80919996591210
Epoch (UTC): 19 October 2018 21:53:10
Eccentricity: 0.0001543
inclination: 98.0085°
perigee height: 625 km
apogee height: 627 km
right ascension of ascending node: 298.9859°
argument of perigee: 102.6633°
revolutions per day: 14.80919996
mean anomaly at epoch: 257.4774°
orbit number at epoch: 59121

The dashed part of the orbit path shows where the satellite is in the earth's shadow,  

DLR